Home > Time Zones > World Clock > Weather > Italy > Genoa > Past weeks

Flag for Italy Weather past 2 weeks in Genoa, Italy

Now
55 °F

Clear.


Feels Like: 55 °F
Forecast: 56 / 67 °F
Wind: 5 mph from Northeast

Location: Genova / Sestri

Current Time: Apr 1, 2015 at 12:51:35 AM

Latest Report: Apr 1, 2015 at 12:20 AM


Visibility: 10 mi

Pressure: 29.80 "Hg

Humidity: 88%

Dew point: 52 °F

Location of GenoaLocation

Historic Weather in Genoa — Graph

°F

Genoa temperature yesterday

Maximum temperature yesterday: 63 °F (at 12:20 PM)
Minimum temperature yesterday: 54 °F (at 3:50 AM)
Average temperature yesterday: 58 °F

Past Weeks' High & Low Weather Summary

 TemperatureHumidityPressure
High70 °F (Mar 27, 1:50 PM)94% (Mar 26, 8:50 PM)30.27 "Hg (Mar 26, 8:50 PM)
Low48 °F (Mar 17, 2:50 AM)12% (Mar 27, 4:20 PM)29.42 "Hg (Mar 25, 1:20 PM)
Average56 °F68%29.94 "Hg
* Reported Mar 16 10:50 PM — Mar 31 11:20 PM, Genoa, Weather by CustomWeather, © 2015

Note: Actual official high and low records may vary slightly from our data, if they occured in-between our weather recording intervals... More about our weather records

Advertising

Genoa weather history for previous 24 hours

 ConditionsComfort  
Time TempWeatherWind HumidityBarometerVisibility
11:20 PM
Tue, Mar 31
57 °FPassing clouds.5 mph82%29.80 "HgN/A
10:50 PM57 °FPassing clouds.5 mph88%29.80 "HgN/A
10:20 PM57 °FPassing clouds.3 mph88%29.77 "HgN/A
9:50 PM57 °FPassing clouds.3 mph88%29.77 "HgN/A
9:20 PM59 °FPassing clouds.5 mph82%29.77 "HgN/A
8:50 PM57 °FPassing clouds.8 mph94%29.77 "HgN/A
8:20 PM59 °FScattered clouds.6 mph82%29.74 "HgN/A
7:50 PM59 °FScattered clouds.6 mph82%29.74 "HgN/A
7:20 PM59 °FScattered clouds.8 mph82%29.74 "HgN/A
6:50 PM59 °FScattered clouds.14 mph82%29.74 "HgN/A
6:20 PM61 °FScattered clouds.7 mph83%29.74 "HgN/A
5:50 PM61 °FScattered clouds.5 mph77%29.74 "HgN/A
5:20 PM61 °FPassing clouds.6 mph77%29.74 "HgN/A
4:50 PM63 °FPassing clouds.5 mph77%29.77 "HgN/A
4:20 PM63 °FPassing clouds.7 mph73%29.77 "HgN/A
3:50 PM63 °FPassing clouds.13 mph77%29.77 "HgN/A
3:20 PM63 °FPassing clouds.15 mph77%29.80 "HgN/A
2:50 PM61 °FScattered clouds.16 mph83%29.80 "HgN/A
2:20 PM61 °FScattered clouds.17 mph83%29.83 "HgN/A
1:50 PM61 °FScattered clouds.18 mph83%29.83 "HgN/A
1:20 PM61 °FScattered clouds.16 mph83%29.86 "Hg4 mi
12:50 PM63 °FScattered clouds.12 mph77%29.86 "HgN/A
12:20 PM63 °FScattered clouds.8 mph77%29.89 "HgN/A
11:50 AM61 °FPartly sunny.2 mph77%29.89 "HgN/A
11:20 AM59 °FScattered clouds.2 mph77%29.89 "HgN/A
10:50 AM59 °FScattered clouds.5 mph82%29.89 "HgN/A
10:20 AM59 °FPassing clouds.6 mph82%29.89 "HgN/A
9:50 AM59 °FPassing clouds.3 mph77%29.89 "HgN/A
9:20 AM59 °FPassing clouds.1 mph77%29.89 "HgN/A
8:50 AM57 °FSunny.2 mph77%29.89 "Hg10 mi
8:20 AM54 °FSunny.5 mph88%29.89 "Hg10 mi
7:50 AM54 °FPassing clouds.5 mph82%29.89 "HgN/A
7:20 AM54 °FPassing clouds.5 mph82%29.89 "HgN/A
6:50 AM54 °FPassing clouds.3 mph82%29.89 "HgN/A
6:20 AM54 °FPassing clouds.3 mph88%29.89 "HgN/A
5:50 AM54 °FPassing clouds.5 mph88%29.89 "HgN/A
5:20 AM54 °FPassing clouds.6 mph88%29.89 "HgN/A
4:50 AM54 °FPassing clouds.5 mph88%29.89 "HgN/A
4:20 AM54 °FPassing clouds.5 mph88%29.89 "HgN/A
3:50 AM54 °FPassing clouds.2 mph88%29.89 "HgN/A
3:20 AM55 °FClear.5 mph82%29.89 "Hg10 mi
2:50 AM55 °FPassing clouds.3 mph82%29.89 "HgN/A
2:20 AM55 °FPassing clouds.5 mph82%29.89 "HgN/A
1:50 AM55 °FPassing clouds.3 mph88%29.89 "HgN/A
1:20 AM55 °FClear.2 mph88%29.86 "Hg10 mi
12:50 AM57 °FClear.2 mph82%29.86 "Hg10 mi
12:20 AM57 °FPassing clouds.6 mph88%29.86 "HgN/A
Weather by CustomWeather, © 2015

See weather overviewHow to use our weather pages